This is the latest recevied weather packets stored in our database for station/object KD4WLE. If no packets are shown the sender has not sent any weather packets the latest 10 day(s).
| Time | Temp. | Humidity | Pressure | Rain* | Wind** | Luminosity | Snow |
|---|---|---|---|---|---|---|---|
| 1777931717 | 24.44° C | 64% | 1016.1 hPa | 0 mm | - | 315 W/m² | - |
| 1777931415 | 24.44° C | 65% | 1016.3 hPa | 0 mm | - | 304 W/m² | - |
| 1777931111 | 24.44° C | 65% | 1016.4 hPa | 0 mm | - | 312 W/m² | - |
| 1777930807 | 25° C | 64% | 1016.2 hPa | 0 mm | - | 330 W/m² | - |
| 1777930503 | 25° C | 63% | 1016.3 hPa | 0 mm | - | 354 W/m² | - |
| 1777930201 | 25° C | 64% | 1016.3 hPa | 0 mm | - | 363 W/m² | - |
| 1777929896 | 25° C | 63% | 1016.4 hPa | 0 mm | - | 350 W/m² | - |
| 1777929594 | 25° C | 64% | 1016.5 hPa | 0 mm | - | 385 W/m² | - |
| 1777929290 | 25.56° C | 63% | 1016.3 hPa | 0 mm | - | 341 W/m² | - |
| 1777928988 | 25° C | 64% | 1016.4 hPa | 0 mm | - | 407 W/m² | - |
| 1777928685 | 24.44° C | 65% | 1016.4 hPa | 0 mm | - | 405 W/m² | - |
| 1777928382 | 24.44° C | 65% | 1016.4 hPa | 0 mm | - | 231 W/m² | - |
| 1777928079 | 24.44° C | 64% | 1016.5 hPa | 0 mm | - | 140 W/m² | - |
| 1777927777 | 25° C | 64% | 1016.6 hPa | 0 mm | - | 163 W/m² | - |
| 1777927475 | 24.44° C | 65% | 1016.5 hPa | 0 mm | - | 160 W/m² | - |
| 1777927174 | 24.44° C | 64% | 1016.6 hPa | 0 mm | - | 207 W/m² | - |
| 1777926872 | 25° C | 64% | 1016.5 hPa | 0 mm | - | 347 W/m² | - |
| 1777926567 | 24.44° C | 64% | 1016.9 hPa | 0 mm | - | 732 W/m² | - |
| 1777926264 | 25° C | 63% | 1016.7 hPa | 0 mm | - | 194 W/m² | - |
| 1777925961 | 24.44° C | 64% | 1016.8 hPa | 0 mm | - | 664 W/m² | - |
| 1777925658 | 25.56° C | 63% | 1016.8 hPa | 0 mm | - | 518 W/m² | - |
| 1777925355 | 25.56° C | 64% | 1016.8 hPa | 0 mm | - | 607 W/m² | - |
| 1777925052 | 25° C | 63% | 1016.9 hPa | 0 mm | - | 564 W/m² | - |
| 1777924749 | 24.44° C | 64% | 1017 hPa | 0 mm | - | 210 W/m² | - |
| 1777924444 | 24.44° C | 65% | 1016.9 hPa | 0 mm | - | 439 W/m² | - |
* Rain latest hour (hover to see other rain measurements)
** Current wind speed in m/s (hover to see current wind gust speed)